Regional Weather Roundup
Issued by NWS

Home | Current Version | Previous Version | Text Only | Print | Product List | Glossary Off
Versions: 1 2 3 4 5 6 7 8 9 10 11 12 13 14 15 16 17 18 19 20 21 22 23 24 25 26 27 28 29 30 31 32 33 34 35 36 37 38 39 40 41 42 43 44 45 46 47 48 49 50

000
ASUS43 KLOT 280810
RWRIL

ILLINOIS REGIONAL WEATHER ROUNDUP
NATIONAL WEATHER SERVICE CHICAGO/ROMEOVILLE IL
300 AM CDT THU AUG 28 2014

NOTE: "FAIR" INDICATES FEW OR NO CLOUDS BELOW 12,000 FEET WITH NO
SIGNIFICANT WEATHER AND/OR OBSTRUCTIONS TO VISIBILITY.

* THESE STATIONS ARE NOT UNDER NWS QUALITY CONTROL. THEY ALSO MAY NOT
  REPORT WEATHER SUCH AS PRECIPITATION OR FOG.

ILZ001-002-007-009-015-016-024-280900-
NORTHWEST ILLINOIS

CITY           SKY/WX    TMP DP  RH WIND       PRES   REMARKS
MOLINE         MOCLDY    67  63  87 E9        30.08F
STERLING*      CLEAR     63  61  94 E7        30.12F
SAVANNA*       PTCLDY    65  62  90 E6        30.11F
$$

ILZ003-004-008-010-011-017-018-280900-
NORTH CENTRAL ILLINOIS

CITY           SKY/WX    TMP DP  RH WIND       PRES   REMARKS
ROCKFORD       MOCLDY    65  61  87 E5        30.15F
FREEPORT*      CLOUDY    63  61  94 E3        30.15F
ROCHELLE*      PTCLDY    62  60  94 NE3       30.14S
DE KALB*       PTCLDY    60  59  97 NE6       30.14F FOG
PERU*          CLOUDY    65  62  90 E8        30.12S
$$

ILZ005-006-012>014-019>023-280900-
NORTHEAST ILLINOIS

CITY           SKY/WX    TMP DP  RH WIND       PRES   REMARKS
CHICAGO-OHARE  PTCLDY    68  57  68 NE8       30.13F
CHICAGO-MIDWAY PTCLDY    71  59  65 E7        30.13S
AURORA         PTCLDY    62  59  90 NE5       30.13F
LANSING*       PTCLDY    64  60  90 E5        30.13S
JOLIET*        CLEAR     64  60  88 NE3       30.13F
WAUKEGAN       PTCLDY    59  57  93 NE3       30.14S
DUPAGE AIRPORT CLOUDY    64  61  90 N6        30.13F
KANKAKEE*      PTCLDY    62  60  93 NE5       30.13R
WHEELING       CLOUDY    67  61  81 CALM      30.15F
MORRIS*        MOCLDY    64  64 100 CALM      30.12S
ROMEOVILLE*    CLEAR     63  61  93 NE6       30.12F
NORTHERLY ISL    N/A     70  59  68 NE14        N/A
$$

LMZ740>746-280900-
SOUTHERN LAKE MICHIGAN

STATION/POSITION SKY/WX   TEMP    WIND        PRES    VSBY  WAVE
                          AIR SEA DIR/SP/G                  HT/PER
                          (F)     (DEG/KT/KT) (MB)    (MI)  (FT/S)
SOUTHERN BUOY              66 69   70/ 12/ 16 1020.9R         1/ 3
WAUKEGAN HARBOR            69      80/ 10/ 12   N/A
HARRISON CRIB              69      60/ 14/ 16   N/A
BURNHAM HARBOR             70      60/ 11/ 13   N/A
CALUMET HARBOR             70      50/  9/ 12 1019.0S
MICHIGAN CITY              65      50/  8/ 11   N/A
MICHIGAN CITY 6N           68 73   70/ 12/ 16   N/A           3/ 4
ST. JOSEPH                 65 72   70/ 12/ 14   N/A           2/ 5
$$

ILZ025>027-034>036-040-047-049-050-058-095>099-280900-
WEST-CENTRAL ILLINOIS

CITY           SKY/WX    TMP DP  RH WIND       PRES   REMARKS
QUINCY         MOCLDY    72  70  93 E5        30.05S
GALESBURG*     PTCLDY    68  64  88 E9        30.08F
MACOMB*        CLOUDY    69  68  97 E3        30.10R
JACKSONVILLE*  PTCLDY    72  71  97 E3        30.07S FOG
PITTSFIELD*    CLEAR     70  68  92 CALM      30.07R
$$

ILZ028>032-037-038-041>044-048-051>054-059>061-280900-
CENTRAL ILLINOIS

CITY           SKY/WX    TMP DP  RH WIND       PRES   REMARKS
PONTIAC        CLOUDY    66  63  88 E5        30.11S
DECATUR        CLOUDY    69  66  90 E6        30.08F
PEORIA         CLOUDY    71  59  65 E12       30.09S
LACON*         PTCLDY    65  60  82 E8        30.10S
LINCOLN*       MOCLDY    69  64  85 NE6       30.05F
SPRINGFIELD    PTCLDY    72  70  93 E8        30.06F
TAYLORVILLE    MOCLDY    72  70  94 E3        30.06F
$$

ILZ033-039-045-046-055>057-062-063-280900-
EAST-CENTRAL ILLINOIS

CITY           SKY/WX    TMP DP  RH WIND       PRES   REMARKS
CHAMPAIGN      CLOUDY    67  62  84 NE10      30.09S
DANVILLE*      CLEAR     62  61  97 NE5       30.08R
RANTOUL*       MOCLDY    67  60  79 E7        30.11S
MATTOON        PTCLDY    69  66  90 E6        30.07F
PARIS*         PTCLDY    67  65  95 CALM      30.09S
$$

ILZ079-100>102-280900-
SOUTHWEST ILLINOIS

CITY           SKY/WX    TMP DP  RH WIND       PRES   REMARKS
BELLEVILLE     MOCLDY    71  71 100 CALM      30.04S FOG
SPARTA*        CLOUDY    71  70  97 CALM      30.05F
$$

ILZ064>066-069>071-074>076-080>082-084>086-088>090-092>094-280900-
SOUTH-CENTRAL ILLINOIS

CITY           SKY/WX    TMP DP  RH WIND       PRES   REMARKS
CARBONDALE     CLOUDY    73  70  90 CALM      30.04S
CAIRO*         PTCLDY    75  71  87 CALM      30.03S FOG
EFFINGHAM*     RAIN      72  68  89 E3        30.06S
MARION         MOCLDY    75  72  88 CALM      30.04F
MT. VERNON     CLOUDY    72  66  83 CALM      30.06S
CENTRALIA*     MOCLDY    72  70  94 CALM      30.05S
SALEM*         MOCLDY    74  73  96 CALM      30.05F
METROPOLIS*    MOCLDY    73  73 100 CALM      30.02S
$$

ILZ067-068-072-073-078-083-087-091-280900-
SOUTHEAST ILLINOIS

CITY           SKY/WX    TMP DP  RH WIND       PRES   REMARKS
LAWRENCEVILLE  PTCLDY    73  71  93 N5        30.05S FOG
FLORA*         PTCLDY    71  70  95 N3        30.05F
FAIRFIELD*     MOCLDY    73  73 100 N5        30.04S
HARRISBURG*    PTCLDY    72  72 100 CALM      30.05S
ROBINSON*      PTCLDY    72  71  98 CALM      30.07S
CARMI*           N/A     74  73  96 CALM      30.04R
$$

ABBREVIATIONS USED IN REMARKS
   TC - TEMPERATURE IN CELSIUS
  WCI - WIND CHILL INDEX
   HX - HEAT INDEX
  VSB - VISIBILITY
$$



USA.gov is the U.S. government's official web portal to all federal, state and local government web resources and services.